Flag for U.S.A. Weather past 2 weeks in Bristol, Tennessee, U.S.A.

Now
68 °F

Fog.


Feels Like: 68 °F
Forecast: 64 / 83 °F
Wind: No wind

Location: Abingdon-Southwest Abingdon

Current Time: Jul 6, 2015 at 11:36:22 PM

Latest Report: Jul 6, 2015 at 10:55 PM


Visibility: 5 mi

Pressure: 30.16 "Hg (28.42 "Hg at 510m altitude)

Humidity: 98%

Dew point: 67 °F

Location of BristolLocation

Historic Weather in Bristol — Graph

°F

Bristol temperature yesterday

Maximum temperature yesterday: 84 °F (at 1:55 PM)
Minimum temperature yesterday: 68 °F (at 6:15 AM)
Average temperature yesterday: 72 °F

Past Weeks' High & Low Weather Summary

 TemperatureHumidityPressure
High88 °F (Jun 25, 4:55 PM)100% (Jun 22, 1:35 AM)30.23 "Hg (Jun 22, 1:35 AM)
Low56 °F (Jun 29, 6:15 AM)38% (Jun 25, 3:15 PM)29.84 "Hg (Jun 27, 3:15 PM)
Average73 °F81%30.06 "Hg
* Reported Jun 21 10:15 PM — Jul 6 10:15 PM, Bristol, Weather by CustomWeather, © 2015

Note: Actual official high and low records may vary slightly from our data, if they occured in-between our weather recording intervals... More about our weather records

Advertising

Bristol weather history for previous 24 hours

 ConditionsComfort  
Time TempWeatherWind HumidityBarometerVisibility
10:15 PM
Mon, Jul 6
69 °FFog.No wind97%30.15 "Hg5 mi
9:55 PM69 °FClear.No wind96%30.15 "Hg7 mi
9:15 PM71 °FSunny.No wind91%30.14 "Hg7 mi
8:55 PM73 °FSunny.No wind86%30.14 "Hg10 mi
8:35 PM74 °FSunny.No wind82%30.14 "Hg10 mi
8:15 PM76 °FSunny.5 mph78%30.14 "Hg10 mi
7:55 PM76 °FSunny.No wind72%30.15 "Hg10 mi
7:35 PM77 °FScattered clouds.No wind68%30.15 "Hg10 mi
7:15 PM78 °FScattered clouds.3 mph68%30.15 "Hg10 mi
6:55 PM78 °FScattered clouds.3 mph64%30.15 "Hg10 mi
6:35 PM78 °FSunny.No wind63%30.15 "Hg10 mi
6:15 PM79 °FSunny.7 mph62%30.16 "Hg10 mi
5:55 PM79 °FSunny.7 mph61%30.16 "Hg10 mi
5:15 PM78 °FScattered clouds.6 mph61%30.17 "Hg10 mi
4:55 PM77 °FBroken clouds.5 mph67%30.17 "Hg10 mi
4:35 PM76 °FMore clouds than sun.7 mph69%30.18 "Hg10 mi
4:15 PM76 °FMore clouds than sun.5 mph72%30.18 "Hg10 mi
3:55 PM75 °FMostly cloudy.3 mph75%30.18 "Hg10 mi
3:35 PM75 °FMostly cloudy.8 mph70%30.19 "Hg10 mi
3:15 PM76 °FMostly cloudy.8 mph66%30.18 "Hg10 mi
2:55 PM77 °FCloudy.9 mph66%30.18 "Hg10 mi
2:35 PM76 °FMore clouds than sun.7 mph65%30.18 "Hg10 mi
2:15 PM75 °FOvercast.8 mph69%30.18 "Hg10 mi
1:55 PM76 °FCloudy.10 mph64%30.19 "Hg10 mi
1:35 PM77 °FCloudy.10 mph66%30.19 "Hg10 mi
1:15 PM76 °FMore clouds than sun.8 mph72%30.19 "Hg10 mi
12:55 PM74 °FMore clouds than sun.8 mph72%30.20 "Hg10 mi
12:35 PM75 °FCloudy.7 mph70%30.20 "Hg10 mi
12:15 PM77 °FPartly sunny.8 mph69%30.20 "Hg10 mi
11:55 AM76 °FBroken clouds.8 mph72%30.20 "Hg10 mi
11:35 AM75 °FPartly sunny.7 mph73%30.20 "Hg10 mi
11:15 AM74 °FScattered clouds.9 mph76%30.20 "Hg10 mi
10:55 AM73 °FPartly sunny.7 mph80%30.20 "Hg10 mi
10:35 AM72 °FMostly cloudy.7 mph84%30.20 "Hg10 mi
10:15 AM72 °FPartly sunny.8 mph84%30.20 "Hg10 mi
9:55 AM72 °FPartly sunny.9 mph84%30.20 "Hg10 mi
9:35 AM71 °FPartly sunny.7 mph91%30.20 "Hg10 mi
9:15 AM70 °FLow clouds.5 mph95%30.20 "Hg10 mi
8:15 AM68 °FLow clouds.7 mph100%30.18 "Hg7 mi
7:55 AM68 °FFog.6 mph100%30.18 "Hg5 mi
7:35 AM67 °FFog.8 mph100%30.18 "Hg5 mi
7:15 AM67 °FFog.8 mph100%30.17 "Hg5 mi
6:55 AM67 °FFog.7 mph100%30.16 "Hg5 mi
6:35 AM67 °FFog.7 mph100%30.15 "Hg5 mi
6:15 AM67 °FFog.7 mph100%30.14 "Hg5 mi
5:55 AM67 °FFog.8 mph100%30.13 "Hg3 mi
5:35 AM67 °FDrizzle. Low clouds.7 mph100%30.12 "Hg2 mi
5:15 AM67 °FDrizzle. Low clouds.5 mph100%30.12 "Hg3 mi
4:55 AM67 °FLight rain. Low clouds.3 mph100%30.11 "Hg3 mi
4:35 AM68 °FDrizzle. Low clouds.5 mph100%30.11 "Hg3 mi
4:15 AM67 °FRain. Low clouds.7 mph100%30.11 "Hg5 mi
3:55 AM67 °FFog.5 mph100%30.10 "Hg5 mi
3:35 AM67 °FDrizzle. Low clouds.6 mph100%30.10 "Hg4 mi
3:15 AM67 °FLight rain. Low clouds.7 mph100%30.10 "Hg5 mi
2:55 AM67 °FDrizzle. Low clouds.6 mph100%30.11 "Hg5 mi
2:35 AM67 °FDrizzle. Low clouds.8 mph100%30.11 "Hg4 mi
2:15 AM68 °FFog.6 mph100%30.11 "Hg5 mi
1:55 AM68 °FFog.8 mph100%30.11 "Hg4 mi
1:35 AM68 °FLow clouds.6 mph100%30.11 "Hg10 mi
1:15 AM68 °FDrizzle. Low clouds.8 mph100%30.11 "Hg5 mi
12:55 AM69 °FRain. Low clouds.8 mph100%30.12 "Hg7 mi
12:15 AM69 °FMostly cloudy.5 mph100%30.12 "Hg10 mi
11:15 PM
Sun, Jul 5
69 °FRain. Low clouds.5 mph100%30.14 "Hg5 mi
Weather by CustomWeather, © 2015

See weather overviewHow to use our weather pages